Volver al catálogo

NOAA 16 DEB

ActivoSSO
NORAD 41155·DEBRIS·🇺🇸 United States

Lanzado Sep 21, 2000 desde Vandenberg Space Force Base

Loading…

Próximos Pases (próximas 24 horas)

TLE

ActualizadoSource: Space-Track

Época: Sep 13, 2026, 19:41 UTC

1 41155U 00055CN  26256.82076116  .00003715  00000-0  12361-2 0  9999
2 41155  98.8953  33.1175 0016001 261.9917  97.9454 14.38216972559070

Sigue NOAA 16 DEB en tiempo real con AllMySat

Download on the App Store